<?xml version="1.0" encoding="UTF-8" standalone="no" ?>
<gpx xmlns="http://www.topografix.com/GPX/1/1" xmlns:xsi="http://www.w3.org/2001/XMLSchema-instance" xsi:schemaLocation="http://www.topografix.com/GPX/1/1 http://www.topografix.com/GPX/1/1/gpx.xsd" version="1.1" creator="VisuGPX - https://www.visugpx.com">
  <metadata>
    <name>autre</name>
    <desc><![CDATA[Guillaume et Pierre]]></desc>
  </metadata>
  <trk>
    <name><![CDATA[23-FEV-14: 16 FEV 2014 10:44]]></name>
    <trkseg>
      <trkpt lat="45.7717" lon="4.84577">
        <ele>139.53</ele>
        <time>2014-02-16T09:44:05Z</time>
      </trkpt>
      <trkpt lat="45.77166" lon="4.846">
        <ele>140.01</ele>
        <time>2014-02-16T09:44:27Z</time>
      </trkpt>
      <trkpt lat="45.77246" lon="4.84574">
        <ele>140.97</ele>
        <time>2014-02-16T09:44:51Z</time>
      </trkpt>
      <trkpt lat="45.77286" lon="4.84607">
        <ele>142.41</ele>
        <time>2014-02-16T09:45:20Z</time>
      </trkpt>
      <trkpt lat="45.77286" lon="4.84664">
        <ele>143.37</ele>
        <time>2014-02-16T09:45:39Z</time>
      </trkpt>
      <trkpt lat="45.77331" lon="4.84643">
        <ele>143.37</ele>
        <time>2014-02-16T09:45:49Z</time>
      </trkpt>
      <trkpt lat="45.77323" lon="4.8468">
        <ele>144.82</ele>
        <time>2014-02-16T09:46:07Z</time>
      </trkpt>
      <trkpt lat="45.77389" lon="4.84634">
        <ele>145.78</ele>
        <time>2014-02-16T09:46:20Z</time>
      </trkpt>
      <trkpt lat="45.77411" lon="4.84712">
        <ele>148.18</ele>
        <time>2014-02-16T09:46:51Z</time>
      </trkpt>
      <trkpt lat="45.77494" lon="4.84662">
        <ele>149.62</ele>
        <time>2014-02-16T09:47:04Z</time>
      </trkpt>
      <trkpt lat="45.77533" lon="4.84673">
        <ele>150.58</ele>
        <time>2014-02-16T09:47:18Z</time>
      </trkpt>
      <trkpt lat="45.77533" lon="4.84718">
        <ele>152.03</ele>
        <time>2014-02-16T09:47:29Z</time>
      </trkpt>
      <trkpt lat="45.77567" lon="4.8471">
        <ele>154.91</ele>
        <time>2014-02-16T09:48:01Z</time>
      </trkpt>
      <trkpt lat="45.77664" lon="4.84574">
        <ele>157.79</ele>
        <time>2014-02-16T09:48:34Z</time>
      </trkpt>
      <trkpt lat="45.77716" lon="4.84534">
        <ele>163.08</ele>
        <time>2014-02-16T09:51:10Z</time>
      </trkpt>
      <trkpt lat="45.77604" lon="4.84716">
        <ele>162.12</ele>
        <time>2014-02-16T09:52:25Z</time>
      </trkpt>
      <trkpt lat="45.77426" lon="4.85137">
        <ele>161.64</ele>
        <time>2014-02-16T09:54:41Z</time>
      </trkpt>
      <trkpt lat="45.77374" lon="4.85152">
        <ele>162.6</ele>
        <time>2014-02-16T09:55:04Z</time>
      </trkpt>
      <trkpt lat="45.77355" lon="4.85182">
        <ele>162.6</ele>
        <time>2014-02-16T09:55:15Z</time>
      </trkpt>
      <trkpt lat="45.77351" lon="4.8525">
        <ele>162.12</ele>
        <time>2014-02-16T09:55:36Z</time>
      </trkpt>
      <trkpt lat="45.77301" lon="4.85385">
        <ele>162.12</ele>
        <time>2014-02-16T09:56:18Z</time>
      </trkpt>
      <trkpt lat="45.77295" lon="4.85411">
        <ele>162.6</ele>
        <time>2014-02-16T09:56:26Z</time>
      </trkpt>
      <trkpt lat="45.77353" lon="4.85482">
        <ele>162.6</ele>
        <time>2014-02-16T09:56:57Z</time>
      </trkpt>
      <trkpt lat="45.77366" lon="4.85622">
        <ele>162.6</ele>
        <time>2014-02-16T09:57:37Z</time>
      </trkpt>
      <trkpt lat="45.77419" lon="4.8578">
        <ele>163.08</ele>
        <time>2014-02-16T09:58:32Z</time>
      </trkpt>
      <trkpt lat="45.77458" lon="4.85812">
        <ele>163.08</ele>
        <time>2014-02-16T09:58:48Z</time>
      </trkpt>
      <trkpt lat="45.7754" lon="4.8584">
        <ele>163.08</ele>
        <time>2014-02-16T09:59:24Z</time>
      </trkpt>
      <trkpt lat="45.77658" lon="4.85834">
        <ele>163.56</ele>
        <time>2014-02-16T10:00:12Z</time>
      </trkpt>
      <trkpt lat="45.77743" lon="4.85849">
        <ele>164.04</ele>
        <time>2014-02-16T10:00:49Z</time>
      </trkpt>
      <trkpt lat="45.77778" lon="4.85836">
        <ele>163.56</ele>
        <time>2014-02-16T10:01:02Z</time>
      </trkpt>
      <trkpt lat="45.77945" lon="4.8587">
        <ele>163.56</ele>
        <time>2014-02-16T10:02:08Z</time>
      </trkpt>
      <trkpt lat="45.78196" lon="4.8586">
        <ele>162.6</ele>
        <time>2014-02-16T10:03:48Z</time>
      </trkpt>
      <trkpt lat="45.78449" lon="4.859">
        <ele>167.41</ele>
        <time>2014-02-16T10:05:30Z</time>
      </trkpt>
      <trkpt lat="45.78458" lon="4.85802">
        <ele>165</ele>
        <time>2014-02-16T10:06:01Z</time>
      </trkpt>
      <trkpt lat="45.78413" lon="4.85647">
        <ele>163.56</ele>
        <time>2014-02-16T10:06:42Z</time>
      </trkpt>
      <trkpt lat="45.78434" lon="4.85523">
        <ele>163.56</ele>
        <time>2014-02-16T10:07:19Z</time>
      </trkpt>
      <trkpt lat="45.78404" lon="4.85385">
        <ele>164.04</ele>
        <time>2014-02-16T10:07:56Z</time>
      </trkpt>
      <trkpt lat="45.78329" lon="4.85188">
        <ele>164.04</ele>
        <time>2014-02-16T10:08:59Z</time>
      </trkpt>
      <trkpt lat="45.78213" lon="4.84969">
        <ele>166.45</ele>
        <time>2014-02-16T10:10:13Z</time>
      </trkpt>
      <trkpt lat="45.78005" lon="4.84729">
        <ele>164.52</ele>
        <time>2014-02-16T10:12:10Z</time>
      </trkpt>
      <trkpt lat="45.77797" lon="4.846">
        <ele>164.04</ele>
        <time>2014-02-16T10:13:48Z</time>
      </trkpt>
      <trkpt lat="45.77737" lon="4.84583">
        <ele>162.12</ele>
        <time>2014-02-16T10:14:17Z</time>
      </trkpt>
      <trkpt lat="45.77816" lon="4.84529">
        <ele>161.64</ele>
        <time>2014-02-16T10:14:56Z</time>
      </trkpt>
      <trkpt lat="45.779" lon="4.84212">
        <ele>161.64</ele>
        <time>2014-02-16T10:16:21Z</time>
      </trkpt>
      <trkpt lat="45.77943" lon="4.84143">
        <ele>160.2</ele>
        <time>2014-02-16T10:16:47Z</time>
      </trkpt>
      <trkpt lat="45.78106" lon="4.84233">
        <ele>159.72</ele>
        <time>2014-02-16T10:18:01Z</time>
      </trkpt>
      <trkpt lat="45.78233" lon="4.8434">
        <ele>159.72</ele>
        <time>2014-02-16T10:19:00Z</time>
      </trkpt>
      <trkpt lat="45.78325" lon="4.84435">
        <ele>160.2</ele>
        <time>2014-02-16T10:19:44Z</time>
      </trkpt>
      <trkpt lat="45.78518" lon="4.84699">
        <ele>161.16</ele>
        <time>2014-02-16T10:21:32Z</time>
      </trkpt>
      <trkpt lat="45.78557" lon="4.84688">
        <ele>164.52</ele>
        <time>2014-02-16T10:21:55Z</time>
      </trkpt>
      <trkpt lat="45.78681" lon="4.84581">
        <ele>196.25</ele>
        <time>2014-02-16T10:23:15Z</time>
      </trkpt>
      <trkpt lat="45.78745" lon="4.84559">
        <ele>205.86</ele>
        <time>2014-02-16T10:23:43Z</time>
      </trkpt>
      <trkpt lat="45.78662" lon="4.8451">
        <ele>214.99</ele>
        <time>2014-02-16T10:24:24Z</time>
      </trkpt>
      <trkpt lat="45.78685" lon="4.84454">
        <ele>223.64</ele>
        <time>2014-02-16T10:24:45Z</time>
      </trkpt>
      <trkpt lat="45.78791" lon="4.84325">
        <ele>241.43</ele>
        <time>2014-02-16T10:25:43Z</time>
      </trkpt>
      <trkpt lat="45.78696" lon="4.84439">
        <ele>230.85</ele>
        <time>2014-02-16T10:26:25Z</time>
      </trkpt>
      <trkpt lat="45.78786" lon="4.8433">
        <ele>240.95</ele>
        <time>2014-02-16T10:27:22Z</time>
      </trkpt>
      <trkpt lat="45.78776" lon="4.84295">
        <ele>244.31</ele>
        <time>2014-02-16T10:27:45Z</time>
      </trkpt>
      <trkpt lat="45.78578" lon="4.83888">
        <ele>236.62</ele>
        <time>2014-02-16T10:30:11Z</time>
      </trkpt>
      <trkpt lat="45.78524" lon="4.83808">
        <ele>238.06</ele>
        <time>2014-02-16T10:30:44Z</time>
      </trkpt>
      <trkpt lat="45.78471" lon="4.83635">
        <ele>240.47</ele>
        <time>2014-02-16T10:31:46Z</time>
      </trkpt>
      <trkpt lat="45.78355" lon="4.83482">
        <ele>231.33</ele>
        <time>2014-02-16T10:32:53Z</time>
      </trkpt>
      <trkpt lat="45.78316" lon="4.83499">
        <ele>229.41</ele>
        <time>2014-02-16T10:33:14Z</time>
      </trkpt>
      <trkpt lat="45.78295" lon="4.83609">
        <ele>216.43</ele>
        <time>2014-02-16T10:34:00Z</time>
      </trkpt>
      <trkpt lat="45.78308" lon="4.83688">
        <ele>214.51</ele>
        <time>2014-02-16T10:34:24Z</time>
      </trkpt>
      <trkpt lat="45.78265" lon="4.83864">
        <ele>206.34</ele>
        <time>2014-02-16T10:35:15Z</time>
      </trkpt>
      <trkpt lat="45.77977" lon="4.84109">
        <ele>169.33</ele>
        <time>2014-02-16T10:37:57Z</time>
      </trkpt>
      <trkpt lat="45.77937" lon="4.84111">
        <ele>167.41</ele>
        <time>2014-02-16T10:38:18Z</time>
      </trkpt>
      <trkpt lat="45.77887" lon="4.84064">
        <ele>170.77</ele>
        <time>2014-02-16T10:38:50Z</time>
      </trkpt>
      <trkpt lat="45.77851" lon="4.83997">
        <ele>191.92</ele>
        <time>2014-02-16T10:39:39Z</time>
      </trkpt>
      <trkpt lat="45.77825" lon="4.83984">
        <ele>197.21</ele>
        <time>2014-02-16T10:39:54Z</time>
      </trkpt>
      <trkpt lat="45.77806" lon="4.83995">
        <ele>202.49</ele>
        <time>2014-02-16T10:40:06Z</time>
      </trkpt>
      <trkpt lat="45.77782" lon="4.83965">
        <ele>212.11</ele>
        <time>2014-02-16T10:40:33Z</time>
      </trkpt>
      <trkpt lat="45.77748" lon="4.83886">
        <ele>228.93</ele>
        <time>2014-02-16T10:41:11Z</time>
      </trkpt>
      <trkpt lat="45.77786" lon="4.83871">
        <ele>220.28</ele>
        <time>2014-02-16T10:41:32Z</time>
      </trkpt>
      <trkpt lat="45.77782" lon="4.83845">
        <ele>225.57</ele>
        <time>2014-02-16T10:41:51Z</time>
      </trkpt>
      <trkpt lat="45.7772" lon="4.83901">
        <ele>227.97</ele>
        <time>2014-02-16T10:42:11Z</time>
      </trkpt>
      <trkpt lat="45.77692" lon="4.83888">
        <ele>227.01</ele>
        <time>2014-02-16T10:42:30Z</time>
      </trkpt>
      <trkpt lat="45.77623" lon="4.83735">
        <ele>227.97</ele>
        <time>2014-02-16T10:43:34Z</time>
      </trkpt>
      <trkpt lat="45.77619" lon="4.83669">
        <ele>227.49</ele>
        <time>2014-02-16T10:43:56Z</time>
      </trkpt>
      <trkpt lat="45.77591" lon="4.83647">
        <ele>215.95</ele>
        <time>2014-02-16T10:44:20Z</time>
      </trkpt>
      <trkpt lat="45.7757" lon="4.83673">
        <ele>209.22</ele>
        <time>2014-02-16T10:44:39Z</time>
      </trkpt>
      <trkpt lat="45.77576" lon="4.83697">
        <ele>204.9</ele>
        <time>2014-02-16T10:44:48Z</time>
      </trkpt>
      <trkpt lat="45.77634" lon="4.83688">
        <ele>198.65</ele>
        <time>2014-02-16T10:45:10Z</time>
      </trkpt>
      <trkpt lat="45.77651" lon="4.8371">
        <ele>195.77</ele>
        <time>2014-02-16T10:45:21Z</time>
      </trkpt>
      <trkpt lat="45.7763" lon="4.83772">
        <ele>170.77</ele>
        <time>2014-02-16T10:46:10Z</time>
      </trkpt>
      <trkpt lat="45.77602" lon="4.83753">
        <ele>165.96</ele>
        <time>2014-02-16T10:46:29Z</time>
      </trkpt>
      <trkpt lat="45.776" lon="4.83692">
        <ele>160.68</ele>
        <time>2014-02-16T10:46:46Z</time>
      </trkpt>
      <trkpt lat="45.77597" lon="4.83718">
        <ele>156.83</ele>
        <time>2014-02-16T10:46:56Z</time>
      </trkpt>
      <trkpt lat="45.77555" lon="4.83714">
        <ele>149.62</ele>
        <time>2014-02-16T10:47:15Z</time>
      </trkpt>
      <trkpt lat="45.77503" lon="4.83654">
        <ele>138.57</ele>
        <time>2014-02-16T10:47:43Z</time>
      </trkpt>
      <trkpt lat="45.77518" lon="4.83594">
        <ele>153.47</ele>
        <time>2014-02-16T10:48:35Z</time>
      </trkpt>
      <trkpt lat="45.77572" lon="4.83549">
        <ele>165.48</ele>
        <time>2014-02-16T10:49:20Z</time>
      </trkpt>
      <trkpt lat="45.77589" lon="4.83465">
        <ele>176.54</ele>
        <time>2014-02-16T10:50:05Z</time>
      </trkpt>
      <trkpt lat="45.77632" lon="4.83635">
        <ele>177.5</ele>
        <time>2014-02-16T10:50:16Z</time>
      </trkpt>
      <trkpt lat="45.77516" lon="4.83609">
        <ele>176.54</ele>
        <time>2014-02-16T10:50:28Z</time>
      </trkpt>
      <trkpt lat="45.7749" lon="4.83617">
        <ele>174.14</ele>
        <time>2014-02-16T10:50:37Z</time>
      </trkpt>
      <trkpt lat="45.77445" lon="4.83592">
        <ele>175.58</ele>
        <time>2014-02-16T10:50:57Z</time>
      </trkpt>
      <trkpt lat="45.77437" lon="4.83551">
        <ele>180.87</ele>
        <time>2014-02-16T10:51:10Z</time>
      </trkpt>
      <trkpt lat="45.77452" lon="4.83493">
        <ele>189.04</ele>
        <time>2014-02-16T10:51:29Z</time>
      </trkpt>
      <trkpt lat="45.77488" lon="4.83484">
        <ele>190</ele>
        <time>2014-02-16T10:51:44Z</time>
      </trkpt>
      <trkpt lat="45.77295" lon="4.83471">
        <ele>175.1</ele>
        <time>2014-02-16T10:53:10Z</time>
      </trkpt>
      <trkpt lat="45.77241" lon="4.83446">
        <ele>174.14</ele>
        <time>2014-02-16T10:53:39Z</time>
      </trkpt>
      <trkpt lat="45.77213" lon="4.83416">
        <ele>172.21</ele>
        <time>2014-02-16T10:53:53Z</time>
      </trkpt>
      <trkpt lat="45.77185" lon="4.83328">
        <ele>168.85</ele>
        <time>2014-02-16T10:54:20Z</time>
      </trkpt>
      <trkpt lat="45.77018" lon="4.83343">
        <ele>148.66</ele>
        <time>2014-02-16T10:55:42Z</time>
      </trkpt>
      <trkpt lat="45.77022" lon="4.83319">
        <ele>138.57</ele>
        <time>2014-02-16T10:56:08Z</time>
      </trkpt>
      <trkpt lat="45.7696" lon="4.83233">
        <ele>137.61</ele>
        <time>2014-02-16T10:56:53Z</time>
      </trkpt>
      <trkpt lat="45.76969" lon="4.83192">
        <ele>139.05</ele>
        <time>2014-02-16T10:57:06Z</time>
      </trkpt>
      <trkpt lat="45.76924" lon="4.83203">
        <ele>135.2</ele>
        <time>2014-02-16T10:57:28Z</time>
      </trkpt>
      <trkpt lat="45.76904" lon="4.83182">
        <ele>133.76</ele>
        <time>2014-02-16T10:57:35Z</time>
      </trkpt>
      <trkpt lat="45.76819" lon="4.8318">
        <ele>130.4</ele>
        <time>2014-02-16T10:58:03Z</time>
      </trkpt>
      <trkpt lat="45.76806" lon="4.82971">
        <ele>127.99</ele>
        <time>2014-02-16T10:59:02Z</time>
      </trkpt>
      <trkpt lat="45.76752" lon="4.82907">
        <ele>127.03</ele>
        <time>2014-02-16T10:59:23Z</time>
      </trkpt>
      <trkpt lat="45.76673" lon="4.82995">
        <ele>128.95</ele>
        <time>2014-02-16T10:59:58Z</time>
      </trkpt>
      <trkpt lat="45.7664" lon="4.82901">
        <ele>131.36</ele>
        <time>2014-02-16T11:00:30Z</time>
      </trkpt>
      <trkpt lat="45.76647" lon="4.82871">
        <ele>130.4</ele>
        <time>2014-02-16T11:00:38Z</time>
      </trkpt>
      <trkpt lat="45.76598" lon="4.82772">
        <ele>132.8</ele>
        <time>2014-02-16T11:01:14Z</time>
      </trkpt>
      <trkpt lat="45.76589" lon="4.82686">
        <ele>139.53</ele>
        <time>2014-02-16T11:01:43Z</time>
      </trkpt>
      <trkpt lat="45.76417" lon="4.8262">
        <ele>163.56</ele>
        <time>2014-02-16T11:03:12Z</time>
      </trkpt>
      <trkpt lat="45.76364" lon="4.8259">
        <ele>169.81</ele>
        <time>2014-02-16T11:03:36Z</time>
      </trkpt>
      <trkpt lat="45.76304" lon="4.82517">
        <ele>181.35</ele>
        <time>2014-02-16T11:04:15Z</time>
      </trkpt>
      <trkpt lat="45.76267" lon="4.82506">
        <ele>184.71</ele>
        <time>2014-02-16T11:04:29Z</time>
      </trkpt>
      <trkpt lat="45.76222" lon="4.82418">
        <ele>203.46</ele>
        <time>2014-02-16T11:05:15Z</time>
      </trkpt>
      <trkpt lat="45.76269" lon="4.82433">
        <ele>211.15</ele>
        <time>2014-02-16T11:05:40Z</time>
      </trkpt>
      <trkpt lat="45.76224" lon="4.82384">
        <ele>221.24</ele>
        <time>2014-02-16T11:06:11Z</time>
      </trkpt>
      <trkpt lat="45.76276" lon="4.82377">
        <ele>229.41</ele>
        <time>2014-02-16T11:06:41Z</time>
      </trkpt>
      <trkpt lat="45.76231" lon="4.82345">
        <ele>234.7</ele>
        <time>2014-02-16T11:07:02Z</time>
      </trkpt>
      <trkpt lat="45.76284" lon="4.82343">
        <ele>244.31</ele>
        <time>2014-02-16T11:07:29Z</time>
      </trkpt>
      <trkpt lat="45.76241" lon="4.823">
        <ele>255.37</ele>
        <time>2014-02-16T11:07:55Z</time>
      </trkpt>
      <trkpt lat="45.76297" lon="4.82306">
        <ele>262.1</ele>
        <time>2014-02-16T11:08:30Z</time>
      </trkpt>
      <trkpt lat="45.76235" lon="4.82328">
        <ele>255.37</ele>
        <time>2014-02-16T11:08:57Z</time>
      </trkpt>
      <trkpt lat="45.76274" lon="4.82351">
        <ele>249.12</ele>
        <time>2014-02-16T11:09:11Z</time>
      </trkpt>
      <trkpt lat="45.76237" lon="4.82321">
        <ele>257.77</ele>
        <time>2014-02-16T11:09:43Z</time>
      </trkpt>
      <trkpt lat="45.76282" lon="4.82328">
        <ele>261.62</ele>
        <time>2014-02-16T11:10:05Z</time>
      </trkpt>
      <trkpt lat="45.76316" lon="4.82218">
        <ele>269.31</ele>
        <time>2014-02-16T11:10:52Z</time>
      </trkpt>
      <trkpt lat="45.76389" lon="4.82216">
        <ele>269.31</ele>
        <time>2014-02-16T11:11:29Z</time>
      </trkpt>
      <trkpt lat="45.764" lon="4.82173">
        <ele>268.83</ele>
        <time>2014-02-16T11:11:44Z</time>
      </trkpt>
      <trkpt lat="45.76327" lon="4.82083">
        <ele>266.42</ele>
        <time>2014-02-16T11:12:21Z</time>
      </trkpt>
      <trkpt lat="45.76306" lon="4.81997">
        <ele>262.58</ele>
        <time>2014-02-16T11:12:46Z</time>
      </trkpt>
      <trkpt lat="45.76336" lon="4.81862">
        <ele>262.1</ele>
        <time>2014-02-16T11:13:24Z</time>
      </trkpt>
      <trkpt lat="45.76342" lon="4.81699">
        <ele>266.42</ele>
        <time>2014-02-16T11:14:15Z</time>
      </trkpt>
      <trkpt lat="45.76299" lon="4.81351">
        <ele>273.63</ele>
        <time>2014-02-16T11:15:57Z</time>
      </trkpt>
      <trkpt lat="45.76323" lon="4.81324">
        <ele>272.19</ele>
        <time>2014-02-16T11:16:12Z</time>
      </trkpt>
      <trkpt lat="45.76383" lon="4.81319">
        <ele>267.38</ele>
        <time>2014-02-16T11:16:37Z</time>
      </trkpt>
      <trkpt lat="45.76458" lon="4.81242">
        <ele>258.73</ele>
        <time>2014-02-16T11:17:13Z</time>
      </trkpt>
      <trkpt lat="45.7652" lon="4.81081">
        <ele>250.08</ele>
        <time>2014-02-16T11:18:02Z</time>
      </trkpt>
      <trkpt lat="45.76585" lon="4.81">
        <ele>241.91</ele>
        <time>2014-02-16T11:18:44Z</time>
      </trkpt>
      <trkpt lat="45.766" lon="4.81006">
        <ele>240.47</ele>
        <time>2014-02-16T11:18:49Z</time>
      </trkpt>
      <trkpt lat="45.76692" lon="4.80948">
        <ele>233.74</ele>
        <time>2014-02-16T11:19:25Z</time>
      </trkpt>
      <trkpt lat="45.76913" lon="4.80978">
        <ele>218.36</ele>
        <time>2014-02-16T11:21:07Z</time>
      </trkpt>
      <trkpt lat="45.76971" lon="4.81004">
        <ele>213.07</ele>
        <time>2014-02-16T11:21:32Z</time>
      </trkpt>
      <trkpt lat="45.77001" lon="4.80989">
        <ele>210.19</ele>
        <time>2014-02-16T11:21:44Z</time>
      </trkpt>
      <trkpt lat="45.76984" lon="4.80929">
        <ele>207.3</ele>
        <time>2014-02-16T11:22:03Z</time>
      </trkpt>
      <trkpt lat="45.77007" lon="4.80909">
        <ele>206.34</ele>
        <time>2014-02-16T11:22:12Z</time>
      </trkpt>
      <trkpt lat="45.77089" lon="4.80944">
        <ele>200.57</ele>
        <time>2014-02-16T11:22:48Z</time>
      </trkpt>
      <trkpt lat="45.7722" lon="4.80965">
        <ele>193.36</ele>
        <time>2014-02-16T11:23:37Z</time>
      </trkpt>
      <trkpt lat="45.77233" lon="4.80939">
        <ele>189.52</ele>
        <time>2014-02-16T11:23:48Z</time>
      </trkpt>
      <trkpt lat="45.7719" lon="4.80916">
        <ele>182.79</ele>
        <time>2014-02-16T11:24:13Z</time>
      </trkpt>
      <trkpt lat="45.77188" lon="4.80884">
        <ele>173.17</ele>
        <time>2014-02-16T11:24:31Z</time>
      </trkpt>
      <trkpt lat="45.77312" lon="4.80824">
        <ele>156.83</ele>
        <time>2014-02-16T11:25:39Z</time>
      </trkpt>
      <trkpt lat="45.77342" lon="4.8083">
        <ele>155.39</ele>
        <time>2014-02-16T11:25:52Z</time>
      </trkpt>
      <trkpt lat="45.77389" lon="4.80942">
        <ele>154.91</ele>
        <time>2014-02-16T11:26:53Z</time>
      </trkpt>
      <trkpt lat="45.77477" lon="4.80879">
        <ele>154.91</ele>
        <time>2014-02-16T11:27:36Z</time>
      </trkpt>
      <trkpt lat="45.77486" lon="4.80897">
        <ele>156.83</ele>
        <time>2014-02-16T11:27:43Z</time>
      </trkpt>
      <trkpt lat="45.77467" lon="4.81105">
        <ele>155.87</ele>
        <time>2014-02-16T11:28:47Z</time>
      </trkpt>
      <trkpt lat="45.77492" lon="4.81135">
        <ele>155.39</ele>
        <time>2014-02-16T11:29:23Z</time>
      </trkpt>
      <trkpt lat="45.77479" lon="4.81379">
        <ele>157.31</ele>
        <time>2014-02-16T11:30:39Z</time>
      </trkpt>
      <trkpt lat="45.77522" lon="4.81594">
        <ele>156.83</ele>
        <time>2014-02-16T11:41:02Z</time>
      </trkpt>
      <trkpt lat="45.77299" lon="4.83682">
        <ele>139.05</ele>
        <time>2014-02-16T11:41:06Z</time>
      </trkpt>
      <trkpt lat="45.77237" lon="4.8415">
        <ele>141.93</ele>
        <time>2014-02-16T11:43:10Z</time>
      </trkpt>
      <trkpt lat="45.77273" lon="4.84287">
        <ele>141.93</ele>
        <time>2014-02-16T11:43:49Z</time>
      </trkpt>
      <trkpt lat="45.77231" lon="4.84334">
        <ele>142.41</ele>
        <time>2014-02-16T11:44:03Z</time>
      </trkpt>
      <trkpt lat="45.77188" lon="4.84349">
        <ele>142.89</ele>
        <time>2014-02-16T11:44:18Z</time>
      </trkpt>
      <trkpt lat="45.77162" lon="4.84594">
        <ele>146.26</ele>
        <time>2014-02-16T11:45:29Z</time>
      </trkpt>
      <trkpt lat="45.77175" lon="4.84654">
        <ele>147.7</ele>
        <time>2014-02-16T11:45:56Z</time>
      </trkpt>
      <trkpt lat="45.77183" lon="4.84643">
        <ele>150.58</ele>
        <time>2014-02-16T11:46:43Z</time>
      </trkpt>
      <trkpt lat="45.77158" lon="4.84594">
        <ele>151.54</ele>
        <time>2014-02-16T11:46:56Z</time>
      </trkpt>
      <trkpt lat="45.77158" lon="4.84594">
        <ele>247.68</ele>
        <time>2014-02-16T11:53:38Z</time>
      </trkpt>
      <trkpt lat="45.77158" lon="4.84594">
        <ele>90.98</ele>
        <time>2014-02-23T09:00:54Z</time>
      </trkpt>
      <trkpt lat="45.77733" lon="4.8451">
        <ele>92.42</ele>
        <time>2014-02-23T09:05:34Z</time>
      </trkpt>
      <trkpt lat="45.77713" lon="4.84514">
        <ele>94.83</ele>
        <time>2014-02-23T09:06:22Z</time>
      </trkpt>
      <trkpt lat="45.77634" lon="4.84647">
        <ele>94.83</ele>
        <time>2014-02-23T09:07:09Z</time>
      </trkpt>
      <trkpt lat="45.77535" lon="4.84907">
        <ele>97.71</ele>
        <time>2014-02-23T09:08:24Z</time>
      </trkpt>
      <trkpt lat="45.77434" lon="4.85111">
        <ele>101.08</ele>
        <time>2014-02-23T09:09:27Z</time>
      </trkpt>
      <trkpt lat="45.77353" lon="4.85171">
        <ele>102.52</ele>
        <time>2014-02-23T09:10:04Z</time>
      </trkpt>
      <trkpt lat="45.77342" lon="4.85203">
        <ele>103</ele>
        <time>2014-02-23T09:10:12Z</time>
      </trkpt>
      <trkpt lat="45.77304" lon="4.8539">
        <ele>103.96</ele>
        <time>2014-02-23T09:11:10Z</time>
      </trkpt>
      <trkpt lat="45.77355" lon="4.85422">
        <ele>103.48</ele>
        <time>2014-02-23T09:11:29Z</time>
      </trkpt>
      <trkpt lat="45.77376" lon="4.85534">
        <ele>103.96</ele>
        <time>2014-02-23T09:12:03Z</time>
      </trkpt>
      <trkpt lat="45.77409" lon="4.85576">
        <ele>103</ele>
        <time>2014-02-23T09:12:19Z</time>
      </trkpt>
      <trkpt lat="45.77428" lon="4.85664">
        <ele>103.96</ele>
        <time>2014-02-23T09:12:46Z</time>
      </trkpt>
      <trkpt lat="45.7749" lon="4.85709">
        <ele>103.48</ele>
        <time>2014-02-23T09:13:11Z</time>
      </trkpt>
      <trkpt lat="45.7757" lon="4.85733">
        <ele>102.04</ele>
        <time>2014-02-23T09:13:38Z</time>
      </trkpt>
      <trkpt lat="45.77688" lon="4.85855">
        <ele>102.04</ele>
        <time>2014-02-23T09:14:37Z</time>
      </trkpt>
      <trkpt lat="45.77763" lon="4.85849">
        <ele>102.52</ele>
        <time>2014-02-23T09:14:55Z</time>
      </trkpt>
      <trkpt lat="45.77782" lon="4.85832">
        <ele>102.52</ele>
        <time>2014-02-23T09:15:03Z</time>
      </trkpt>
      <trkpt lat="45.77864" lon="4.85873">
        <ele>103.48</ele>
        <time>2014-02-23T09:15:30Z</time>
      </trkpt>
      <trkpt lat="45.77947" lon="4.85877">
        <ele>103.96</ele>
        <time>2014-02-23T09:15:58Z</time>
      </trkpt>
      <trkpt lat="45.78194" lon="4.85853">
        <ele>108.77</ele>
        <time>2014-02-23T09:17:26Z</time>
      </trkpt>
      <trkpt lat="45.78248" lon="4.85885">
        <ele>110.69</ele>
        <time>2014-02-23T09:17:47Z</time>
      </trkpt>
      <trkpt lat="45.78359" lon="4.85875">
        <ele>111.17</ele>
        <time>2014-02-23T09:18:22Z</time>
      </trkpt>
      <trkpt lat="45.78451" lon="4.85905">
        <ele>115.98</ele>
        <time>2014-02-23T09:18:59Z</time>
      </trkpt>
      <trkpt lat="45.78471" lon="4.85742">
        <ele>115.98</ele>
        <time>2014-02-23T09:19:43Z</time>
      </trkpt>
      <trkpt lat="45.7843" lon="4.85645">
        <ele>115.5</ele>
        <time>2014-02-23T09:20:06Z</time>
      </trkpt>
      <trkpt lat="45.78462" lon="4.85572">
        <ele>117.42</ele>
        <time>2014-02-23T09:20:30Z</time>
      </trkpt>
      <trkpt lat="45.7846" lon="4.85538">
        <ele>118.86</ele>
        <time>2014-02-23T09:20:39Z</time>
      </trkpt>
      <trkpt lat="45.78439" lon="4.85398">
        <ele>120.78</ele>
        <time>2014-02-23T09:21:16Z</time>
      </trkpt>
      <trkpt lat="45.78385" lon="4.85267">
        <ele>123.67</ele>
        <time>2014-02-23T09:21:54Z</time>
      </trkpt>
      <trkpt lat="45.78273" lon="4.85038">
        <ele>128.95</ele>
        <time>2014-02-23T09:23:18Z</time>
      </trkpt>
      <trkpt lat="45.78226" lon="4.84999">
        <ele>131.36</ele>
        <time>2014-02-23T09:23:46Z</time>
      </trkpt>
      <trkpt lat="45.78183" lon="4.84916">
        <ele>131.84</ele>
        <time>2014-02-23T09:24:32Z</time>
      </trkpt>
      <trkpt lat="45.77941" lon="4.84695">
        <ele>136.16</ele>
        <time>2014-02-23T09:26:20Z</time>
      </trkpt>
      <trkpt lat="45.7781" lon="4.84619">
        <ele>136.64</ele>
        <time>2014-02-23T09:26:47Z</time>
      </trkpt>
      <trkpt lat="45.77842" lon="4.84546">
        <ele>140.01</ele>
        <time>2014-02-23T09:27:10Z</time>
      </trkpt>
      <trkpt lat="45.77808" lon="4.84463">
        <ele>141.93</ele>
        <time>2014-02-23T09:27:20Z</time>
      </trkpt>
      <trkpt lat="45.77909" lon="4.84177">
        <ele>147.22</ele>
        <time>2014-02-23T09:28:53Z</time>
      </trkpt>
      <trkpt lat="45.77934" lon="4.84137">
        <ele>146.74</ele>
        <time>2014-02-23T09:29:09Z</time>
      </trkpt>
      <trkpt lat="45.77986" lon="4.8415">
        <ele>145.3</ele>
        <time>2014-02-23T09:29:25Z</time>
      </trkpt>
      <trkpt lat="45.78218" lon="4.84278">
        <ele>146.74</ele>
        <time>2014-02-23T09:30:59Z</time>
      </trkpt>
      <trkpt lat="45.78323" lon="4.84403">
        <ele>146.26</ele>
        <time>2014-02-23T09:31:47Z</time>
      </trkpt>
      <trkpt lat="45.78434" lon="4.84585">
        <ele>145.3</ele>
        <time>2014-02-23T09:32:42Z</time>
      </trkpt>
      <trkpt lat="45.78475" lon="4.8463">
        <ele>146.26</ele>
        <time>2014-02-23T09:33:01Z</time>
      </trkpt>
      <trkpt lat="45.78542" lon="4.84667">
        <ele>147.7</ele>
        <time>2014-02-23T09:33:39Z</time>
      </trkpt>
      <trkpt lat="45.78567" lon="4.84529">
        <ele>150.58</ele>
        <time>2014-02-23T09:35:40Z</time>
      </trkpt>
      <trkpt lat="45.78593" lon="4.84465">
        <ele>153.95</ele>
        <time>2014-02-23T09:35:54Z</time>
      </trkpt>
      <trkpt lat="45.7864" lon="4.84431">
        <ele>161.64</ele>
        <time>2014-02-23T09:36:17Z</time>
      </trkpt>
      <trkpt lat="45.78655" lon="4.84386">
        <ele>169.33</ele>
        <time>2014-02-23T09:36:44Z</time>
      </trkpt>
      <trkpt lat="45.78685" lon="4.84373">
        <ele>172.21</ele>
        <time>2014-02-23T09:36:56Z</time>
      </trkpt>
      <trkpt lat="45.78799" lon="4.84446">
        <ele>180.87</ele>
        <time>2014-02-23T09:37:37Z</time>
      </trkpt>
      <trkpt lat="45.78818" lon="4.84435">
        <ele>183.27</ele>
        <time>2014-02-23T09:37:50Z</time>
      </trkpt>
      <trkpt lat="45.78767" lon="4.84439">
        <ele>183.75</ele>
        <time>2014-02-23T09:38:15Z</time>
      </trkpt>
      <trkpt lat="45.78735" lon="4.84411">
        <ele>188.56</ele>
        <time>2014-02-23T09:38:39Z</time>
      </trkpt>
      <trkpt lat="45.78782" lon="4.84375">
        <ele>199.13</ele>
        <time>2014-02-23T09:39:14Z</time>
      </trkpt>
      <trkpt lat="45.78801" lon="4.8431">
        <ele>199.61</ele>
        <time>2014-02-23T09:39:38Z</time>
      </trkpt>
      <trkpt lat="45.78829" lon="4.84278">
        <ele>208.74</ele>
        <time>2014-02-23T09:40:08Z</time>
      </trkpt>
      <trkpt lat="45.78791" lon="4.84364">
        <ele>204.9</ele>
        <time>2014-02-23T09:40:36Z</time>
      </trkpt>
      <trkpt lat="45.78756" lon="4.84218">
        <ele>209.7</ele>
        <time>2014-02-23T09:41:49Z</time>
      </trkpt>
      <trkpt lat="45.78503" lon="4.83757">
        <ele>207.78</ele>
        <time>2014-02-23T09:44:13Z</time>
      </trkpt>
      <trkpt lat="45.78413" lon="4.84055">
        <ele>202.01</ele>
        <time>2014-02-23T09:45:37Z</time>
      </trkpt>
      <trkpt lat="45.78389" lon="4.84072">
        <ele>201.53</ele>
        <time>2014-02-23T09:45:52Z</time>
      </trkpt>
      <trkpt lat="45.78342" lon="4.84057">
        <ele>202.49</ele>
        <time>2014-02-23T09:46:14Z</time>
      </trkpt>
      <trkpt lat="45.78239" lon="4.84081">
        <ele>200.09</ele>
        <time>2014-02-23T09:46:53Z</time>
      </trkpt>
      <trkpt lat="45.7822" lon="4.84038">
        <ele>195.77</ele>
        <time>2014-02-23T09:47:07Z</time>
      </trkpt>
      <trkpt lat="45.78181" lon="4.8404">
        <ele>186.15</ele>
        <time>2014-02-23T09:47:21Z</time>
      </trkpt>
      <trkpt lat="45.78108" lon="4.84085">
        <ele>189.52</ele>
        <time>2014-02-23T09:47:57Z</time>
      </trkpt>
      <trkpt lat="45.78115" lon="4.84104">
        <ele>186.63</ele>
        <time>2014-02-23T09:48:05Z</time>
      </trkpt>
      <trkpt lat="45.78059" lon="4.84104">
        <ele>179.42</ele>
        <time>2014-02-23T09:48:28Z</time>
      </trkpt>
      <trkpt lat="45.78155" lon="4.83967">
        <ele>172.21</ele>
        <time>2014-02-23T09:49:17Z</time>
      </trkpt>
      <trkpt lat="45.78162" lon="4.83933">
        <ele>171.73</ele>
        <time>2014-02-23T09:49:30Z</time>
      </trkpt>
      <trkpt lat="45.77956" lon="4.84115">
        <ele>143.85</ele>
        <time>2014-02-23T09:51:24Z</time>
      </trkpt>
      <trkpt lat="45.77885" lon="4.84062">
        <ele>148.18</ele>
        <time>2014-02-23T09:52:43Z</time>
      </trkpt>
      <trkpt lat="45.77853" lon="4.84004">
        <ele>168.85</ele>
        <time>2014-02-23T09:53:28Z</time>
      </trkpt>
      <trkpt lat="45.77795" lon="4.83982">
        <ele>187.59</ele>
        <time>2014-02-23T09:54:22Z</time>
      </trkpt>
      <trkpt lat="45.77741" lon="4.83875">
        <ele>210.67</ele>
        <time>2014-02-23T09:55:25Z</time>
      </trkpt>
      <trkpt lat="45.77784" lon="4.83922">
        <ele>202.49</ele>
        <time>2014-02-23T09:56:02Z</time>
      </trkpt>
      <trkpt lat="45.77769" lon="4.83888">
        <ele>209.22</ele>
        <time>2014-02-23T09:56:32Z</time>
      </trkpt>
      <trkpt lat="45.7772" lon="4.83864">
        <ele>213.55</ele>
        <time>2014-02-23T09:57:07Z</time>
      </trkpt>
      <trkpt lat="45.77645" lon="4.83701">
        <ele>219.8</ele>
        <time>2014-02-23T09:58:03Z</time>
      </trkpt>
      <trkpt lat="45.77651" lon="4.83615">
        <ele>222.68</ele>
        <time>2014-02-23T09:58:29Z</time>
      </trkpt>
      <trkpt lat="45.77606" lon="4.836">
        <ele>215.47</ele>
        <time>2014-02-23T09:58:57Z</time>
      </trkpt>
      <trkpt lat="45.77593" lon="4.83615">
        <ele>212.11</ele>
        <time>2014-02-23T09:59:07Z</time>
      </trkpt>
      <trkpt lat="45.77585" lon="4.83804">
        <ele>202.49</ele>
        <time>2014-02-23T09:59:55Z</time>
      </trkpt>
      <trkpt lat="45.77561" lon="4.83866">
        <ele>182.31</ele>
        <time>2014-02-23T10:00:44Z</time>
      </trkpt>
      <trkpt lat="45.77531" lon="4.83862">
        <ele>180.87</ele>
        <time>2014-02-23T10:00:58Z</time>
      </trkpt>
      <trkpt lat="45.77533" lon="4.83774">
        <ele>176.06</ele>
        <time>2014-02-23T10:01:20Z</time>
      </trkpt>
      <trkpt lat="45.7752" lon="4.83795">
        <ele>172.69</ele>
        <time>2014-02-23T10:01:31Z</time>
      </trkpt>
      <trkpt lat="45.77443" lon="4.83757">
        <ele>162.12</ele>
        <time>2014-02-23T10:02:00Z</time>
      </trkpt>
      <trkpt lat="45.77422" lon="4.8378">
        <ele>162.6</ele>
        <time>2014-02-23T10:02:16Z</time>
      </trkpt>
      <trkpt lat="45.77419" lon="4.83735">
        <ele>177.02</ele>
        <time>2014-02-23T10:02:56Z</time>
      </trkpt>
      <trkpt lat="45.77469" lon="4.83703">
        <ele>193.36</ele>
        <time>2014-02-23T10:03:40Z</time>
      </trkpt>
      <trkpt lat="45.77484" lon="4.83624">
        <ele>212.11</ele>
        <time>2014-02-23T10:04:36Z</time>
      </trkpt>
      <trkpt lat="45.77479" lon="4.83613">
        <ele>217.4</ele>
        <time>2014-02-23T10:04:53Z</time>
      </trkpt>
      <trkpt lat="45.77415" lon="4.83615">
        <ele>212.59</ele>
        <time>2014-02-23T10:05:20Z</time>
      </trkpt>
      <trkpt lat="45.77432" lon="4.83529">
        <ele>227.49</ele>
        <time>2014-02-23T10:05:56Z</time>
      </trkpt>
      <trkpt lat="45.77488" lon="4.83549">
        <ele>225.09</ele>
        <time>2014-02-23T10:06:57Z</time>
      </trkpt>
      <trkpt lat="45.77482" lon="4.83495">
        <ele>231.33</ele>
        <time>2014-02-23T10:07:25Z</time>
      </trkpt>
      <trkpt lat="45.77452" lon="4.8348">
        <ele>231.81</ele>
        <time>2014-02-23T10:07:41Z</time>
      </trkpt>
      <trkpt lat="45.77441" lon="4.83444">
        <ele>232.78</ele>
        <time>2014-02-23T10:07:52Z</time>
      </trkpt>
      <trkpt lat="45.77456" lon="4.83401">
        <ele>232.3</ele>
        <time>2014-02-23T10:08:05Z</time>
      </trkpt>
      <trkpt lat="45.77426" lon="4.83225">
        <ele>233.74</ele>
        <time>2014-02-23T10:08:52Z</time>
      </trkpt>
      <trkpt lat="45.77316" lon="4.83197">
        <ele>229.41</ele>
        <time>2014-02-23T10:09:29Z</time>
      </trkpt>
      <trkpt lat="45.77243" lon="4.83145">
        <ele>225.57</ele>
        <time>2014-02-23T10:09:54Z</time>
      </trkpt>
      <trkpt lat="45.77179" lon="4.83244">
        <ele>216.43</ele>
        <time>2014-02-23T10:10:26Z</time>
      </trkpt>
      <trkpt lat="45.77168" lon="4.83308">
        <ele>206.82</ele>
        <time>2014-02-23T10:10:54Z</time>
      </trkpt>
      <trkpt lat="45.77035" lon="4.83343">
        <ele>188.08</ele>
        <time>2014-02-23T10:12:12Z</time>
      </trkpt>
      <trkpt lat="45.7698" lon="4.83313">
        <ele>174.14</ele>
        <time>2014-02-23T10:12:56Z</time>
      </trkpt>
      <trkpt lat="45.7698" lon="4.83265">
        <ele>174.62</ele>
        <time>2014-02-23T10:13:07Z</time>
      </trkpt>
      <trkpt lat="45.76949" lon="4.83201">
        <ele>175.58</ele>
        <time>2014-02-23T10:13:21Z</time>
      </trkpt>
      <trkpt lat="45.76962" lon="4.83165">
        <ele>176.54</ele>
        <time>2014-02-23T10:13:33Z</time>
      </trkpt>
      <trkpt lat="45.76919" lon="4.83182">
        <ele>173.17</ele>
        <time>2014-02-23T10:13:50Z</time>
      </trkpt>
      <trkpt lat="45.76902" lon="4.83128">
        <ele>169.81</ele>
        <time>2014-02-23T10:14:10Z</time>
      </trkpt>
      <trkpt lat="45.76879" lon="4.82914">
        <ele>168.85</ele>
        <time>2014-02-23T10:15:03Z</time>
      </trkpt>
      <trkpt lat="45.76896" lon="4.82851">
        <ele>168.37</ele>
        <time>2014-02-23T10:15:15Z</time>
      </trkpt>
      <trkpt lat="45.76877" lon="4.82804">
        <ele>167.89</ele>
        <time>2014-02-23T10:15:27Z</time>
      </trkpt>
      <trkpt lat="45.76836" lon="4.82808">
        <ele>167.41</ele>
        <time>2014-02-23T10:15:34Z</time>
      </trkpt>
      <trkpt lat="45.76801" lon="4.82761">
        <ele>166.93</ele>
        <time>2014-02-23T10:15:52Z</time>
      </trkpt>
      <trkpt lat="45.76853" lon="4.82446">
        <ele>170.77</ele>
        <time>2014-02-23T10:18:00Z</time>
      </trkpt>
      <trkpt lat="45.7698" lon="4.82124">
        <ele>170.29</ele>
        <time>2014-02-23T10:19:06Z</time>
      </trkpt>
      <trkpt lat="45.76947" lon="4.821">
        <ele>169.81</ele>
        <time>2014-02-23T10:19:17Z</time>
      </trkpt>
      <trkpt lat="45.76975" lon="4.82012">
        <ele>169.81</ele>
        <time>2014-02-23T10:19:34Z</time>
      </trkpt>
      <trkpt lat="45.76975" lon="4.81864">
        <ele>167.41</ele>
        <time>2014-02-23T10:20:17Z</time>
      </trkpt>
      <trkpt lat="45.77005" lon="4.81712">
        <ele>165.48</ele>
        <time>2014-02-23T10:20:58Z</time>
      </trkpt>
      <trkpt lat="45.76827" lon="4.81755">
        <ele>164.04</ele>
        <time>2014-02-23T10:21:07Z</time>
      </trkpt>
      <trkpt lat="45.7684" lon="4.81688">
        <ele>163.08</ele>
        <time>2014-02-23T10:21:31Z</time>
      </trkpt>
      <trkpt lat="45.76889" lon="4.8163">
        <ele>163.08</ele>
        <time>2014-02-23T10:21:57Z</time>
      </trkpt>
      <trkpt lat="45.76922" lon="4.8154">
        <ele>162.12</ele>
        <time>2014-02-23T10:22:17Z</time>
      </trkpt>
      <trkpt lat="45.7699" lon="4.8151">
        <ele>161.64</ele>
        <time>2014-02-23T10:22:43Z</time>
      </trkpt>
      <trkpt lat="45.77035" lon="4.81463">
        <ele>161.64</ele>
        <time>2014-02-23T10:23:04Z</time>
      </trkpt>
      <trkpt lat="45.77117" lon="4.81422">
        <ele>160.2</ele>
        <time>2014-02-23T10:23:32Z</time>
      </trkpt>
      <trkpt lat="45.77132" lon="4.81396">
        <ele>159.72</ele>
        <time>2014-02-23T10:23:41Z</time>
      </trkpt>
      <trkpt lat="45.77166" lon="4.81429">
        <ele>165.96</ele>
        <time>2014-02-23T10:23:57Z</time>
      </trkpt>
      <trkpt lat="45.77145" lon="4.81459">
        <ele>175.58</ele>
        <time>2014-02-23T10:24:26Z</time>
      </trkpt>
      <trkpt lat="45.77143" lon="4.81525">
        <ele>193.84</ele>
        <time>2014-02-23T10:25:20Z</time>
      </trkpt>
      <trkpt lat="45.77218" lon="4.81555">
        <ele>197.69</ele>
        <time>2014-02-23T10:26:05Z</time>
      </trkpt>
      <trkpt lat="45.77336" lon="4.8156">
        <ele>197.21</ele>
        <time>2014-02-23T10:26:58Z</time>
      </trkpt>
      <trkpt lat="45.77411" lon="4.81506">
        <ele>197.21</ele>
        <time>2014-02-23T10:27:28Z</time>
      </trkpt>
      <trkpt lat="45.77422" lon="4.81519">
        <ele>197.69</ele>
        <time>2014-02-23T10:27:38Z</time>
      </trkpt>
      <trkpt lat="45.77527" lon="4.81519">
        <ele>205.38</ele>
        <time>2014-02-23T10:28:28Z</time>
      </trkpt>
      <trkpt lat="45.776" lon="4.81495">
        <ele>201.53</ele>
        <time>2014-02-23T10:28:51Z</time>
      </trkpt>
      <trkpt lat="45.77623" lon="4.81504">
        <ele>204.9</ele>
        <time>2014-02-23T10:29:02Z</time>
      </trkpt>
      <trkpt lat="45.77651" lon="4.81542">
        <ele>211.15</ele>
        <time>2014-02-23T10:29:21Z</time>
      </trkpt>
      <trkpt lat="45.7764" lon="4.81553">
        <ele>214.99</ele>
        <time>2014-02-23T10:29:32Z</time>
      </trkpt>
      <trkpt lat="45.7764" lon="4.81519">
        <ele>216.91</ele>
        <time>2014-02-23T10:29:45Z</time>
      </trkpt>
      <trkpt lat="45.77658" lon="4.81536">
        <ele>218.36</ele>
        <time>2014-02-23T10:29:54Z</time>
      </trkpt>
      <trkpt lat="45.7766" lon="4.81624">
        <ele>222.68</ele>
        <time>2014-02-23T10:30:22Z</time>
      </trkpt>
      <trkpt lat="45.77608" lon="4.81656">
        <ele>223.64</ele>
        <time>2014-02-23T10:30:39Z</time>
      </trkpt>
      <trkpt lat="45.77582" lon="4.81643">
        <ele>220.76</ele>
        <time>2014-02-23T10:30:51Z</time>
      </trkpt>
      <trkpt lat="45.77555" lon="4.8166">
        <ele>225.09</ele>
        <time>2014-02-23T10:31:09Z</time>
      </trkpt>
      <trkpt lat="45.77529" lon="4.81776">
        <ele>227.49</ele>
        <time>2014-02-23T10:31:56Z</time>
      </trkpt>
      <trkpt lat="45.77565" lon="4.81834">
        <ele>227.97</ele>
        <time>2014-02-23T10:32:22Z</time>
      </trkpt>
      <trkpt lat="45.77565" lon="4.81753">
        <ele>226.05</ele>
        <time>2014-02-23T10:32:58Z</time>
      </trkpt>
      <trkpt lat="45.7761" lon="4.81656">
        <ele>223.64</ele>
        <time>2014-02-23T10:33:30Z</time>
      </trkpt>
      <trkpt lat="45.77851" lon="4.81611">
        <ele>217.88</ele>
        <time>2014-02-23T10:35:02Z</time>
      </trkpt>
      <trkpt lat="45.77896" lon="4.81375">
        <ele>211.63</ele>
        <time>2014-02-23T10:36:00Z</time>
      </trkpt>
      <trkpt lat="45.77958" lon="4.81379">
        <ele>210.67</ele>
        <time>2014-02-23T10:36:12Z</time>
      </trkpt>
      <trkpt lat="45.77973" lon="4.81407">
        <ele>211.63</ele>
        <time>2014-02-23T10:36:25Z</time>
      </trkpt>
      <trkpt lat="45.7796" lon="4.81444">
        <ele>212.59</ele>
        <time>2014-02-23T10:36:36Z</time>
      </trkpt>
      <trkpt lat="45.77969" lon="4.81581">
        <ele>217.88</ele>
        <time>2014-02-23T10:37:20Z</time>
      </trkpt>
      <trkpt lat="45.78031" lon="4.81566">
        <ele>218.84</ele>
        <time>2014-02-23T10:37:43Z</time>
      </trkpt>
      <trkpt lat="45.78162" lon="4.81611">
        <ele>217.88</ele>
        <time>2014-02-23T10:38:28Z</time>
      </trkpt>
      <trkpt lat="45.78149" lon="4.8159">
        <ele>212.59</ele>
        <time>2014-02-23T10:38:40Z</time>
      </trkpt>
      <trkpt lat="45.78168" lon="4.8159">
        <ele>208.74</ele>
        <time>2014-02-23T10:38:50Z</time>
      </trkpt>
      <trkpt lat="45.78149" lon="4.81575">
        <ele>206.34</ele>
        <time>2014-02-23T10:39:00Z</time>
      </trkpt>
      <trkpt lat="45.78175" lon="4.81572">
        <ele>203.46</ele>
        <time>2014-02-23T10:39:10Z</time>
      </trkpt>
      <trkpt lat="45.78183" lon="4.81551">
        <ele>198.65</ele>
        <time>2014-02-23T10:39:18Z</time>
      </trkpt>
      <trkpt lat="45.78168" lon="4.81517">
        <ele>193.84</ele>
        <time>2014-02-23T10:39:33Z</time>
      </trkpt>
      <trkpt lat="45.78198" lon="4.81525">
        <ele>190</ele>
        <time>2014-02-23T10:39:42Z</time>
      </trkpt>
      <trkpt lat="45.78233" lon="4.81547">
        <ele>191.92</ele>
        <time>2014-02-23T10:39:55Z</time>
      </trkpt>
      <trkpt lat="45.78288" lon="4.81639">
        <ele>204.9</ele>
        <time>2014-02-23T10:40:44Z</time>
      </trkpt>
      <trkpt lat="45.78205" lon="4.81823">
        <ele>221.72</ele>
        <time>2014-02-23T10:41:51Z</time>
      </trkpt>
      <trkpt lat="45.78215" lon="4.81841">
        <ele>224.12</ele>
        <time>2014-02-23T10:42:01Z</time>
      </trkpt>
      <trkpt lat="45.78342" lon="4.81793">
        <ele>226.53</ele>
        <time>2014-02-23T10:42:54Z</time>
      </trkpt>
      <trkpt lat="45.7837" lon="4.81869">
        <ele>226.05</ele>
        <time>2014-02-23T10:43:20Z</time>
      </trkpt>
      <trkpt lat="45.78379" lon="4.82055">
        <ele>227.49</ele>
        <time>2014-02-23T10:44:15Z</time>
      </trkpt>
      <trkpt lat="45.78424" lon="4.82047">
        <ele>227.01</ele>
        <time>2014-02-23T10:44:35Z</time>
      </trkpt>
      <trkpt lat="45.78451" lon="4.82066">
        <ele>226.53</ele>
        <time>2014-02-23T10:44:45Z</time>
      </trkpt>
      <trkpt lat="45.78456" lon="4.82096">
        <ele>226.05</ele>
        <time>2014-02-23T10:44:51Z</time>
      </trkpt>
      <trkpt lat="45.78512" lon="4.82098">
        <ele>218.84</ele>
        <time>2014-02-23T10:45:13Z</time>
      </trkpt>
      <trkpt lat="45.7863" lon="4.82057">
        <ele>192.88</ele>
        <time>2014-02-23T10:45:57Z</time>
      </trkpt>
      <trkpt lat="45.78675" lon="4.82064">
        <ele>177.98</ele>
        <time>2014-02-23T10:46:17Z</time>
      </trkpt>
      <trkpt lat="45.78713" lon="4.82038">
        <ele>168.85</ele>
        <time>2014-02-23T10:46:33Z</time>
      </trkpt>
      <trkpt lat="45.78829" lon="4.82143">
        <ele>156.83</ele>
        <time>2014-02-23T10:47:14Z</time>
      </trkpt>
      <trkpt lat="45.78823" lon="4.8218">
        <ele>156.35</ele>
        <time>2014-02-23T10:47:25Z</time>
      </trkpt>
      <trkpt lat="45.78767" lon="4.82227">
        <ele>157.31</ele>
        <time>2014-02-23T10:47:46Z</time>
      </trkpt>
      <trkpt lat="45.78756" lon="4.82259">
        <ele>159.72</ele>
        <time>2014-02-23T10:48:00Z</time>
      </trkpt>
      <trkpt lat="45.787" lon="4.82156">
        <ele>179.42</ele>
        <time>2014-02-23T10:49:08Z</time>
      </trkpt>
      <trkpt lat="45.78696" lon="4.8221">
        <ele>189.52</ele>
        <time>2014-02-23T10:49:39Z</time>
      </trkpt>
      <trkpt lat="45.78677" lon="4.82165">
        <ele>197.69</ele>
        <time>2014-02-23T10:50:03Z</time>
      </trkpt>
      <trkpt lat="45.7863" lon="4.82184">
        <ele>205.86</ele>
        <time>2014-02-23T10:50:27Z</time>
      </trkpt>
      <trkpt lat="45.78602" lon="4.82281">
        <ele>224.12</ele>
        <time>2014-02-23T10:51:20Z</time>
      </trkpt>
      <trkpt lat="45.78608" lon="4.82317">
        <ele>232.3</ele>
        <time>2014-02-23T10:51:41Z</time>
      </trkpt>
      <trkpt lat="45.78456" lon="4.82364">
        <ele>246.23</ele>
        <time>2014-02-23T10:53:11Z</time>
      </trkpt>
      <trkpt lat="45.78387" lon="4.82514">
        <ele>248.16</ele>
        <time>2014-02-23T10:54:07Z</time>
      </trkpt>
      <trkpt lat="45.78323" lon="4.82497">
        <ele>248.16</ele>
        <time>2014-02-23T10:54:33Z</time>
      </trkpt>
      <trkpt lat="45.78239" lon="4.82519">
        <ele>247.68</ele>
        <time>2014-02-23T10:55:03Z</time>
      </trkpt>
      <trkpt lat="45.782" lon="4.82499">
        <ele>247.2</ele>
        <time>2014-02-23T10:55:22Z</time>
      </trkpt>
      <trkpt lat="45.7813" lon="4.82532">
        <ele>246.23</ele>
        <time>2014-02-23T10:55:49Z</time>
      </trkpt>
      <trkpt lat="45.78065" lon="4.82517">
        <ele>244.79</ele>
        <time>2014-02-23T10:56:15Z</time>
      </trkpt>
      <trkpt lat="45.77979" lon="4.82538">
        <ele>243.83</ele>
        <time>2014-02-23T10:56:45Z</time>
      </trkpt>
      <trkpt lat="45.77992" lon="4.83025">
        <ele>239.99</ele>
        <time>2014-02-23T10:59:09Z</time>
      </trkpt>
      <trkpt lat="45.77964" lon="4.83225">
        <ele>235.18</ele>
        <time>2014-02-23T10:59:53Z</time>
      </trkpt>
      <trkpt lat="45.77947" lon="4.83238">
        <ele>235.18</ele>
        <time>2014-02-23T10:59:59Z</time>
      </trkpt>
      <trkpt lat="45.77876" lon="4.83212">
        <ele>235.18</ele>
        <time>2014-02-23T11:00:23Z</time>
      </trkpt>
      <trkpt lat="45.77658" lon="4.83229">
        <ele>240.47</ele>
        <time>2014-02-23T11:01:47Z</time>
      </trkpt>
      <trkpt lat="45.77537" lon="4.83259">
        <ele>242.87</ele>
        <time>2014-02-23T11:02:37Z</time>
      </trkpt>
      <trkpt lat="45.77422" lon="4.83175">
        <ele>249.6</ele>
        <time>2014-02-23T11:04:42Z</time>
      </trkpt>
      <trkpt lat="45.77432" lon="4.83122">
        <ele>250.08</ele>
        <time>2014-02-23T11:04:53Z</time>
      </trkpt>
      <trkpt lat="45.77417" lon="4.82987">
        <ele>251.52</ele>
        <time>2014-02-23T11:05:40Z</time>
      </trkpt>
      <trkpt lat="45.77355" lon="4.82995">
        <ele>252</ele>
        <time>2014-02-23T11:06:02Z</time>
      </trkpt>
      <trkpt lat="45.7734" lon="4.82939">
        <ele>253.44</ele>
        <time>2014-02-23T11:06:22Z</time>
      </trkpt>
      <trkpt lat="45.77308" lon="4.82937">
        <ele>253.93</ele>
        <time>2014-02-23T11:06:34Z</time>
      </trkpt>
      <trkpt lat="45.77293" lon="4.82909">
        <ele>253.44</ele>
        <time>2014-02-23T11:06:45Z</time>
      </trkpt>
      <trkpt lat="45.77297" lon="4.82725">
        <ele>250.08</ele>
        <time>2014-02-23T11:07:39Z</time>
      </trkpt>
      <trkpt lat="45.77316" lon="4.82729">
        <ele>250.56</ele>
        <time>2014-02-23T11:07:48Z</time>
      </trkpt>
      <trkpt lat="45.77319" lon="4.82678">
        <ele>248.16</ele>
        <time>2014-02-23T11:08:06Z</time>
      </trkpt>
      <trkpt lat="45.77284" lon="4.82705">
        <ele>243.35</ele>
        <time>2014-02-23T11:08:22Z</time>
      </trkpt>
      <trkpt lat="45.77276" lon="4.8265">
        <ele>236.14</ele>
        <time>2014-02-23T11:08:43Z</time>
      </trkpt>
      <trkpt lat="45.77261" lon="4.82686">
        <ele>230.37</ele>
        <time>2014-02-23T11:09:00Z</time>
      </trkpt>
      <trkpt lat="45.77239" lon="4.82688">
        <ele>226.05</ele>
        <time>2014-02-23T11:09:13Z</time>
      </trkpt>
      <trkpt lat="45.77185" lon="4.82645">
        <ele>222.2</ele>
        <time>2014-02-23T11:09:33Z</time>
      </trkpt>
      <trkpt lat="45.7719" lon="4.82592">
        <ele>222.2</ele>
        <time>2014-02-23T11:09:50Z</time>
      </trkpt>
      <trkpt lat="45.77166" lon="4.82585">
        <ele>221.72</ele>
        <time>2014-02-23T11:10:02Z</time>
      </trkpt>
      <trkpt lat="45.76952" lon="4.8259">
        <ele>205.38</ele>
        <time>2014-02-23T11:11:20Z</time>
      </trkpt>
      <trkpt lat="45.76939" lon="4.82527">
        <ele>203.94</ele>
        <time>2014-02-23T11:11:42Z</time>
      </trkpt>
      <trkpt lat="45.76954" lon="4.82437">
        <ele>208.26</ele>
        <time>2014-02-23T11:12:06Z</time>
      </trkpt>
      <trkpt lat="45.76941" lon="4.82407">
        <ele>210.19</ele>
        <time>2014-02-23T11:12:20Z</time>
      </trkpt>
      <trkpt lat="45.76883" lon="4.82396">
        <ele>202.98</ele>
        <time>2014-02-23T11:12:45Z</time>
      </trkpt>
      <trkpt lat="45.76917" lon="4.82426">
        <ele>194.32</ele>
        <time>2014-02-23T11:13:02Z</time>
      </trkpt>
      <trkpt lat="45.76926" lon="4.82461">
        <ele>188.08</ele>
        <time>2014-02-23T11:13:17Z</time>
      </trkpt>
      <trkpt lat="45.76913" lon="4.82448">
        <ele>184.23</ele>
        <time>2014-02-23T11:13:25Z</time>
      </trkpt>
      <trkpt lat="45.76904" lon="4.82469">
        <ele>179.9</ele>
        <time>2014-02-23T11:13:33Z</time>
      </trkpt>
      <trkpt lat="45.76842" lon="4.8248">
        <ele>170.77</ele>
        <time>2014-02-23T11:13:59Z</time>
      </trkpt>
      <trkpt lat="45.76838" lon="4.82675">
        <ele>170.77</ele>
        <time>2014-02-23T11:14:57Z</time>
      </trkpt>
      <trkpt lat="45.76797" lon="4.82821">
        <ele>171.25</ele>
        <time>2014-02-23T11:15:45Z</time>
      </trkpt>
      <trkpt lat="45.76726" lon="4.82763">
        <ele>171.73</ele>
        <time>2014-02-23T11:16:11Z</time>
      </trkpt>
      <trkpt lat="45.76649" lon="4.82843">
        <ele>169.81</ele>
        <time>2014-02-23T11:16:59Z</time>
      </trkpt>
      <trkpt lat="45.7663" lon="4.82836">
        <ele>170.29</ele>
        <time>2014-02-23T11:17:12Z</time>
      </trkpt>
      <trkpt lat="45.76576" lon="4.82665">
        <ele>179.42</ele>
        <time>2014-02-23T11:18:14Z</time>
      </trkpt>
      <trkpt lat="45.76548" lon="4.82708">
        <ele>181.35</ele>
        <time>2014-02-23T11:18:28Z</time>
      </trkpt>
      <trkpt lat="45.76522" lon="4.82716">
        <ele>184.71</ele>
        <time>2014-02-23T11:18:42Z</time>
      </trkpt>
      <trkpt lat="45.76501" lon="4.82714">
        <ele>187.11</ele>
        <time>2014-02-23T11:18:54Z</time>
      </trkpt>
      <trkpt lat="45.76473" lon="4.82673">
        <ele>191.92</ele>
        <time>2014-02-23T11:19:12Z</time>
      </trkpt>
      <trkpt lat="45.76368" lon="4.8265">
        <ele>205.38</ele>
        <time>2014-02-23T11:20:08Z</time>
      </trkpt>
      <trkpt lat="45.76321" lon="4.82667">
        <ele>211.15</ele>
        <time>2014-02-23T11:20:33Z</time>
      </trkpt>
      <trkpt lat="45.76293" lon="4.82639">
        <ele>217.88</ele>
        <time>2014-02-23T11:20:57Z</time>
      </trkpt>
      <trkpt lat="45.76263" lon="4.82562">
        <ele>225.09</ele>
        <time>2014-02-23T11:21:23Z</time>
      </trkpt>
      <trkpt lat="45.76246" lon="4.82602">
        <ele>205.86</ele>
        <time>2014-02-23T11:22:08Z</time>
      </trkpt>
      <trkpt lat="45.76207" lon="4.82626">
        <ele>186.63</ele>
        <time>2014-02-23T11:22:40Z</time>
      </trkpt>
      <trkpt lat="45.76098" lon="4.82579">
        <ele>184.71</ele>
        <time>2014-02-23T11:23:37Z</time>
      </trkpt>
      <trkpt lat="45.76091" lon="4.82645">
        <ele>182.31</ele>
        <time>2014-02-23T11:23:54Z</time>
      </trkpt>
      <trkpt lat="45.76038" lon="4.82684">
        <ele>181.35</ele>
        <time>2014-02-23T11:24:15Z</time>
      </trkpt>
      <trkpt lat="45.75977" lon="4.82662">
        <ele>182.31</ele>
        <time>2014-02-23T11:24:45Z</time>
      </trkpt>
      <trkpt lat="45.75915" lon="4.82549">
        <ele>191.44</ele>
        <time>2014-02-23T11:25:40Z</time>
      </trkpt>
      <trkpt lat="45.75919" lon="4.82512">
        <ele>194.8</ele>
        <time>2014-02-23T11:25:50Z</time>
      </trkpt>
      <trkpt lat="45.75874" lon="4.82517">
        <ele>201.05</ele>
        <time>2014-02-23T11:26:12Z</time>
      </trkpt>
      <trkpt lat="45.75797" lon="4.82424">
        <ele>227.01</ele>
        <time>2014-02-23T11:27:40Z</time>
      </trkpt>
      <trkpt lat="45.75771" lon="4.82371">
        <ele>233.26</ele>
        <time>2014-02-23T11:28:07Z</time>
      </trkpt>
      <trkpt lat="45.7578" lon="4.82315">
        <ele>240.47</ele>
        <time>2014-02-23T11:28:34Z</time>
      </trkpt>
      <trkpt lat="45.75748" lon="4.82205">
        <ele>254.89</ele>
        <time>2014-02-23T11:29:37Z</time>
      </trkpt>
      <trkpt lat="45.75774" lon="4.82225">
        <ele>257.77</ele>
        <time>2014-02-23T11:29:50Z</time>
      </trkpt>
      <trkpt lat="45.75797" lon="4.82208">
        <ele>260.17</ele>
        <time>2014-02-23T11:30:05Z</time>
      </trkpt>
      <trkpt lat="45.75836" lon="4.8212">
        <ele>273.63</ele>
        <time>2014-02-23T11:31:10Z</time>
      </trkpt>
      <trkpt lat="45.75954" lon="4.82163">
        <ele>281.8</ele>
        <time>2014-02-23T11:32:17Z</time>
      </trkpt>
      <trkpt lat="45.75988" lon="4.82263">
        <ele>288.53</ele>
        <time>2014-02-23T11:32:56Z</time>
      </trkpt>
      <trkpt lat="45.76018" lon="4.82266">
        <ele>289.97</ele>
        <time>2014-02-23T11:33:12Z</time>
      </trkpt>
      <trkpt lat="45.76046" lon="4.82315">
        <ele>291.9</ele>
        <time>2014-02-23T11:33:37Z</time>
      </trkpt>
      <trkpt lat="45.76087" lon="4.82338">
        <ele>292.86</ele>
        <time>2014-02-23T11:33:57Z</time>
      </trkpt>
      <trkpt lat="45.76196" lon="4.82296">
        <ele>301.51</ele>
        <time>2014-02-23T11:34:59Z</time>
      </trkpt>
      <trkpt lat="45.76231" lon="4.82308">
        <ele>302.95</ele>
        <time>2014-02-23T11:35:17Z</time>
      </trkpt>
      <trkpt lat="45.76263" lon="4.82298">
        <ele>310.64</ele>
        <time>2014-02-23T11:35:44Z</time>
      </trkpt>
      <trkpt lat="45.76299" lon="4.8222">
        <ele>312.57</ele>
        <time>2014-02-23T11:36:52Z</time>
      </trkpt>
      <trkpt lat="45.76353" lon="4.82223">
        <ele>310.16</ele>
        <time>2014-02-23T11:37:38Z</time>
      </trkpt>
      <trkpt lat="45.76362" lon="4.82182">
        <ele>309.2</ele>
        <time>2014-02-23T11:37:51Z</time>
      </trkpt>
      <trkpt lat="45.76327" lon="4.82124">
        <ele>307.76</ele>
        <time>2014-02-23T11:38:11Z</time>
      </trkpt>
      <trkpt lat="45.76308" lon="4.82012">
        <ele>301.51</ele>
        <time>2014-02-23T11:38:41Z</time>
      </trkpt>
      <trkpt lat="45.76336" lon="4.81856">
        <ele>299.11</ele>
        <time>2014-02-23T11:39:20Z</time>
      </trkpt>
      <trkpt lat="45.76301" lon="4.81444">
        <ele>304.88</ele>
        <time>2014-02-23T11:41:22Z</time>
      </trkpt>
      <trkpt lat="45.76342" lon="4.81341">
        <ele>302.47</ele>
        <time>2014-02-23T11:42:06Z</time>
      </trkpt>
      <trkpt lat="45.76366" lon="4.81345">
        <ele>300.55</ele>
        <time>2014-02-23T11:42:14Z</time>
      </trkpt>
      <trkpt lat="45.76437" lon="4.81268">
        <ele>293.34</ele>
        <time>2014-02-23T11:42:52Z</time>
      </trkpt>
      <trkpt lat="45.76531" lon="4.81068">
        <ele>277.96</ele>
        <time>2014-02-23T11:43:55Z</time>
      </trkpt>
      <trkpt lat="45.766" lon="4.80976">
        <ele>269.79</ele>
        <time>2014-02-23T11:44:31Z</time>
      </trkpt>
      <trkpt lat="45.76673" lon="4.80946">
        <ele>264.02</ele>
        <time>2014-02-23T11:44:56Z</time>
      </trkpt>
      <trkpt lat="45.76726" lon="4.80946">
        <ele>259.69</ele>
        <time>2014-02-23T11:45:18Z</time>
      </trkpt>
      <trkpt lat="45.76887" lon="4.80974">
        <ele>247.2</ele>
        <time>2014-02-23T11:46:17Z</time>
      </trkpt>
      <trkpt lat="45.76932" lon="4.81012">
        <ele>243.35</ele>
        <time>2014-02-23T11:46:36Z</time>
      </trkpt>
      <trkpt lat="45.76984" lon="4.81004">
        <ele>239.51</ele>
        <time>2014-02-23T11:46:58Z</time>
      </trkpt>
      <trkpt lat="45.76997" lon="4.80965">
        <ele>236.62</ele>
        <time>2014-02-23T11:47:11Z</time>
      </trkpt>
      <trkpt lat="45.76975" lon="4.80914">
        <ele>234.7</ele>
        <time>2014-02-23T11:47:32Z</time>
      </trkpt>
      <trkpt lat="45.77207" lon="4.80866">
        <ele>191.92</ele>
        <time>2014-02-23T11:49:05Z</time>
      </trkpt>
      <trkpt lat="45.77323" lon="4.80813">
        <ele>182.79</ele>
        <time>2014-02-23T11:49:53Z</time>
      </trkpt>
      <trkpt lat="45.77359" lon="4.80845">
        <ele>180.87</ele>
        <time>2014-02-23T11:50:14Z</time>
      </trkpt>
      <trkpt lat="45.77394" lon="4.80944">
        <ele>180.87</ele>
        <time>2014-02-23T11:50:58Z</time>
      </trkpt>
      <trkpt lat="45.77477" lon="4.80877">
        <ele>181.35</ele>
        <time>2014-02-23T11:51:34Z</time>
      </trkpt>
      <trkpt lat="45.77484" lon="4.81012">
        <ele>183.75</ele>
        <time>2014-02-23T11:52:13Z</time>
      </trkpt>
      <trkpt lat="45.77503" lon="4.81081">
        <ele>183.27</ele>
        <time>2014-02-23T11:52:38Z</time>
      </trkpt>
      <trkpt lat="45.77473" lon="4.81381">
        <ele>182.79</ele>
        <time>2014-02-23T11:53:59Z</time>
      </trkpt>
      <trkpt lat="45.77484" lon="4.81493">
        <ele>182.31</ele>
        <time>2014-02-23T11:54:21Z</time>
      </trkpt>
      <trkpt lat="45.77464" lon="4.818">
        <ele>182.79</ele>
        <time>2014-02-23T11:55:02Z</time>
      </trkpt>
      <trkpt lat="45.77291" lon="4.83699">
        <ele>163.56</ele>
        <time>2014-02-23T12:04:24Z</time>
      </trkpt>
      <trkpt lat="45.77291" lon="4.8383">
        <ele>168.37</ele>
        <time>2014-02-23T12:05:14Z</time>
      </trkpt>
      <trkpt lat="45.77267" lon="4.83967">
        <ele>168.37</ele>
        <time>2014-02-23T12:06:05Z</time>
      </trkpt>
      <trkpt lat="45.77261" lon="4.84117">
        <ele>165.48</ele>
        <time>2014-02-23T12:06:40Z</time>
      </trkpt>
      <trkpt lat="45.77297" lon="4.84283">
        <ele>163.08</ele>
        <time>2014-02-23T12:07:21Z</time>
      </trkpt>
      <trkpt lat="45.77194" lon="4.84356">
        <ele>161.64</ele>
        <time>2014-02-23T12:08:03Z</time>
      </trkpt>
      <trkpt lat="45.77207" lon="4.84435">
        <ele>161.16</ele>
        <time>2014-02-23T12:08:25Z</time>
      </trkpt>
      <trkpt lat="45.7714" lon="4.84446">
        <ele>161.16</ele>
        <time>2014-02-23T12:08:49Z</time>
      </trkpt>
      <trkpt lat="45.77123" lon="4.84368">
        <ele>161.16</ele>
        <time>2014-02-23T12:09:09Z</time>
      </trkpt>
      <trkpt lat="45.77143" lon="4.84349">
        <ele>160.68</ele>
        <time>2014-02-23T12:09:21Z</time>
      </trkpt>
      <trkpt lat="45.7717" lon="4.8436">
        <ele>160.68</ele>
        <time>2014-02-23T12:09:33Z</time>
      </trkpt>
      <trkpt lat="45.7719" lon="4.84527">
        <ele>163.08</ele>
        <time>2014-02-23T12:14:40Z</time>
      </trkpt>
      <trkpt lat="45.77164" lon="4.84557">
        <ele>163.08</ele>
        <time>2014-02-23T12:15:03Z</time>
      </trkpt>
      <trkpt lat="45.77179" lon="4.84643">
        <ele>168.37</ele>
        <time>2014-02-23T12:16:21Z</time>
      </trkpt>
      <trkpt lat="45.77166" lon="4.84673">
        <ele>171.73</ele>
        <time>2014-02-23T12:16:31Z</time>
      </trkpt>
      <trkpt lat="45.77181" lon="4.84637">
        <ele>176.54</ele>
        <time>2014-02-23T12:16:46Z</time>
      </trkpt>
      <trkpt lat="45.77158" lon="4.84656">
        <ele>177.5</ele>
        <time>2014-02-23T12:17:01Z</time>
      </trkpt>
      <trkpt lat="45.77162" lon="4.84673">
        <ele>177.5</ele>
        <time>2014-02-23T12:17:16Z</time>
      </trkpt>
      <trkpt lat="45.77185" lon="4.84607">
        <ele>177.02</ele>
        <time>2014-02-23T12:17:28Z</time>
      </trkpt>
    </trkseg>
  </trk>
</gpx>